,,Stat6,,Stat2,,Stat8,,Stat9,,Stat10,,Wind1,,Wind1,
time,status,PA1M_AVG,status,PR1M_SUM,status,RH1M_AVG,status,SR1M_AVG,status,TA1M_AVG,status,W1dAve1m,status,W1sAve1m,
2008-01-29, 00:00:00,VALID,917.573,VALID,0,VALID,100,VALID,-0.0169808,VALID,20.1109,VALID,29,VALID,0,
2008-01-29, 00:01:00,VALID,917.574,VALID,0,VALID,100,VALID,0,VALID,20.1211,VALID,22,VALID,0,
2008-01-29, 00:02:00,VALID,917.569,VALID,0,VALID,100,VALID,-0.0169808,VALID,20.0947,VALID,27,VALID,0,
2008-01-29, 00:03:00,VALID,917.579,VALID,0,VALID,100,VALID,-0.0169808,VALID,20.0909,VALID,21,VALID,0,
2008-01-29, 00:04:00,VALID,917.582,VALID,0,VALID,100,VALID,-0.0169808,VALID,20.1014,VALID,21,VALID,0,
2008-01-29, 00:05:00,VALID,917.59,VALID,0,VALID,100,VALID,-0.0339617,VALID,20.1109,VALID,28,VALID,0,
2008-01-29, 00:06:00,VALID,917.589,VALID,0,VALID,100,VALID,0,VALID,20.1239,VALID,29,VALID,0,
2008-01-29, 00:07:00,VALID,917.572,VALID,0,VALID,100,VALID,0,VALID,20.1106,VALID,18,VALID,0.309896,
2008-01-29, 00:08:00,VALID,917.552,VALID,0,VALID,100,VALID,-0.0339617,VALID,20.0527,VALID,14,VALID,1.09425,
2008-01-29, 00:09:00,VALID,917.541,VALID,0,VALID,100,VALID,0,VALID,20.0328,VALID,14,VALID,1.23514,
2008-01-29, 00:10:00,VALID,917.518,VALID,0,VALID,100,VALID,-0.0339617,VALID,20.0033,VALID,9,VALID,1.05108,
2008-01-29, 00:11:00,VALID,917.509,VALID,0,VALID,100,VALID,0,VALID,19.9836,VALID,29,VALID,1.31882,
2008-01-29, 00:12:00,VALID,917.495,VALID,0,VALID,100,VALID,-0.0169808,VALID,19.9906,VALID,22,VALID,1.08017,
2008-01-29, 00:13:00,VALID,917.484,VALID,0,VALID,100,VALID,0,VALID,19.9644,VALID,14,VALID,1.37082,
2008-01-29, 00:14:00,VALID,917.476,VALID,0,VALID,100,VALID,0.0169808,VALID,19.9187,VALID,20,VALID,1.81632,
2008-01-29, 00:15:00,VALID,917.47,VALID,0,VALID,100,VALID,0,VALID,19.9259,VALID,26,VALID,1.26711,
2008-01-29, 00:16:00,VALID,917.466,VALID,0,VALID,100,VALID,0.0169808,VALID,19.9354,VALID,34,VALID,1.47768,
2008-01-29, 00:17:00,VALID,917.455,VALID,0,VALID,100,VALID,-0.0339617,VALID,19.9194,VALID,39,VALID,0.892987,
2008-01-29, 00:18:00,VALID,917.444,VALID,0,VALID,100,VALID,-0.0169808,VALID,19.9354,VALID,32,VALID,0.106286,
2008-01-29, 00:19:00,VALID,917.421,VALID,0,VALID,100,VALID,-0.0509425,VALID,19.9197,VALID,36,VALID,0,
2008-01-29, 00:20:00,VALID,917.402,VALID,0,VALID,100,VALID,-0.0169808,VALID,19.887,VALID,24,VALID,0.247869,
2008-01-29, 00:21:00,VALID,917.39,VALID,0,VALID,100,VALID,-0.0169808,VALID,19.8803,VALID,40,VALID,0.928925,
2008-01-29, 00:22:00,VALID,917.379,VALID,0,VALID,100,VALID,-0.0339617,VALID,19.9035,VALID,31,VALID,0.0541159,
2008-01-29, 00:23:00,VALID,917.361,VALID,0,VALID,100,VALID,-0.0509425,VALID,19.9032,VALID,34,VALID,0.520633,
2008-01-29, 00:24:00,VALID,917.343,VALID,0,VALID,100,VALID,-0.0169808,VALID,19.9062,VALID,25,VALID,0.936612,
2008-01-29, 00:25:00,VALID,917.328,VALID,0,VALID,100,VALID,0.0169808,VALID,19.9027,VALID,33,VALID,1.16817,
2008-01-29, 00:26:00,VALID,917.306,VALID,0,VALID,100,VALID,0.0169808,VALID,19.9229,VALID,24,VALID,0.867882,
2008-01-29, 00:27:00,VALID,917.301,VALID,0,VALID,100,VALID,0,VALID,19.9322,VALID,15,VALID,0.75651,
2008-01-29, 00:28:00,VALID,917.298,VALID,0,VALID,100,VALID,0,VALID,19.9446,VALID,20,VALID,0.96689,
2008-01-29, 00:29:00,VALID,917.281,VALID,0,VALID,100,VALID,0,VALID,19.9349,VALID,4,VALID,1.2262,
2008-01-29, 00:30:00,VALID,917.276,VALID,0,VALID,100,VALID,-0.0169808,VALID,19.9095,VALID,3,VALID,1.05621,
2008-01-29, 00:31:00,VALID,917.254,VALID,0,VALID,100,VALID,-0.0169808,VALID,19.8895,VALID,16,VALID,0.934411,
2008-01-29, 00:32:00,VALID,917.248,VALID,0,VALID,100,VALID,-0.0169808,VALID,19.8867,VALID,7,VALID,0.729421,
2008-01-29, 00:33:00,VALID,917.215,VALID,0,VALID,100,VALID,0,VALID,19.857,VALID,16,VALID,0.643895,
2008-01-29, 00:34:00,VALID,917.196,VALID,0,VALID,100,VALID,-0.0509425,VALID,19.867,VALID,9,VALID,0.634641,
2008-01-29, 00:35:00,VALID,917.176,VALID,0,VALID,100,VALID,0,VALID,19.8872,VALID,8,VALID,0.716319,
2008-01-29, 00:36:00,VALID,917.164,VALID,0,VALID,100,VALID,0,VALID,19.8763,VALID,7,VALID,0.0110176,
2008-01-29, 00:37:00,VALID,917.149,VALID,0,VALID,100,VALID,-0.0339617,VALID,19.886,VALID,7,VALID,0,
2008-01-29, 00:38:00,VALID,917.14,VALID,0,VALID,100,VALID,0,VALID,19.9124,VALID,7,VALID,0,
2008-01-29, 00:39:00,VALID,917.132,VALID,0,VALID,100,VALID,-0.0339617,VALID,19.9382,VALID,7,VALID,0,
2008-01-29, 00:40:00,VALID,917.134,VALID,0,VALID,100,VALID,-0.0169808,VALID,19.9609,VALID,8,VALID,0,
2008-01-29, 00:41:00,VALID,917.133,VALID,0,VALID,100,VALID,-0.0169808,VALID,19.9871,VALID,9,VALID,0,
2008-01-29, 00:42:00,VALID,917.124,VALID,0,VALID,100,VALID,0.0169808,VALID,19.9995,VALID,9,VALID,0,
2008-01-29, 00:43:00,VALID,917.131,VALID,0,VALID,100,VALID,-0.0169808,VALID,20.016,VALID,9,VALID,0,
2008-01-29, 00:44:00,VALID,917.127,VALID,0,VALID,100,VALID,-0.0339617,VALID,20.0158,VALID,9,VALID,0,
2008-01-29, 00:45:00,VALID,917.127,VALID,0,VALID,100,VALID,-0.0509425,VALID,20.0293,VALID,9,VALID,0,
2008-01-29, 00:46:00,VALID,917.128,VALID,0,VALID,100,VALID,0,VALID,20.0457,VALID,9,VALID,0,
2008-01-29, 00:47:00,VALID,917.128,VALID,0,VALID,100,VALID,0,VALID,20.0552,VALID,9,VALID,0,
2008-01-29, 00:48:00,VALID,917.128,VALID,0,VALID,100,VALID,-0.0169808,VALID,20.0649,VALID,9,VALID,0,
2008-01-29, 00:49:00,VALID,917.118,VALID,0,VALID,100,VALID,-0.0169808,VALID,20.0352,VALID,9,VALID,0,
2008-01-29, 00:50:00,VALID,917.088,VALID,0,VALID,100,VALID,0,VALID,20.016,VALID,6,VALID,0,
2008-01-29, 00:51:00,VALID,917.085,VALID,0,VALID,100,VALID,-0.0169808,VALID,19.9644,VALID,348,VALID,0,
2008-01-29, 00:52:00,VALID,917.063,VALID,0,VALID,100,VALID,0,VALID,19.9284,VALID,348,VALID,0,
2008-01-29, 00:53:00,VALID,917.053,VALID,0,VALID,100,VALID,0,VALID,19.9219,VALID,348,VALID,0,
2008-01-29, 00:54:00,VALID,917.049,VALID,0,VALID,100,VALID,0,VALID,19.9087,VALID,303,VALID,0,
2008-01-29, 00:55:00,VALID,917.041,VALID,0,VALID,100,VALID,0,VALID,19.9122,VALID,292,VALID,0,
2008-01-29, 00:56:00,VALID,917.03,VALID,0,VALID,100,VALID,0,VALID,19.9127,VALID,288,VALID,0,
2008-01-29, 00:57:00,VALID,917.026,VALID,0,VALID,100,VALID,0,VALID,19.8927,VALID,288,VALID,0,
2008-01-29, 00:58:00,VALID,917.024,VALID,0,VALID,100,VALID,0,VALID,19.8897,VALID,288,VALID,0,
2008-01-29, 00:59:00,VALID,917.029,VALID,0,VALID,100,VALID,0,VALID,19.8995,VALID,288,VALID,0,
2008-01-29, 01:00:00,VALID,917.023,VALID,0,VALID,100,VALID,0,VALID,19.903,VALID,290,VALID,0,
2008-01-29, 01:01:00,VALID,917.015,VALID,0,VALID,100,VALID,-0.0169808,VALID,19.9122,VALID,312,VALID,0,
2008-01-29, 01:02:00,VALID,917.032,VALID,0,VALID,100,VALID,0,VALID,19.899,VALID,340,VALID,0,
2008-01-29, 01:03:00,VALID,917.041,VALID,0,VALID,100,VALID,0,VALID,19.8962,VALID,340,VALID,0,
2008-01-29, 01:04:00,VALID,917.036,VALID,0,VALID,100,VALID,0,VALID,19.8857,VALID,340,VALID,0,
2008-01-29, 01:05:00,VALID,917.034,VALID,0,VALID,100,VALID,0,VALID,19.899,VALID,341,VALID,0,
2008-01-29, 01:06:00,VALID,917.02,VALID,0,VALID,100,VALID,0.0169808,VALID,19.9152,VALID,346,VALID,0,
2008-01-29, 01:07:00,VALID,917.031,VALID,0,VALID,100,VALID,0,VALID,19.9446,VALID,16,VALID,0,
2008-01-29, 01:08:00,VALID,917.018,VALID,0,VALID,100,VALID,0,VALID,19.9411,VALID,21,VALID,0,
2008-01-29, 01:09:00,VALID,917.016,VALID,0,VALID,100,VALID,0,VALID,19.9317,VALID,21,VALID,0,
2008-01-29, 01:10:00,VALID,916.989,VALID,0,VALID,100,VALID,-0.0169808,VALID,19.9152,VALID,21,VALID,0,
2008-01-29, 01:11:00,VALID,916.978,VALID,0,VALID,100,VALID,-0.0169808,VALID,19.9027,VALID,18,VALID,0.0493608,
2008-01-29, 01:12:00,VALID,916.935,VALID,0,VALID,100,VALID,0,VALID,19.8535,VALID,16,VALID,0.393111,
2008-01-29, 01:13:00,VALID,916.914,VALID,0,VALID,100,VALID,-0.0169808,VALID,19.8411,VALID,20,VALID,0,
2008-01-29, 01:14:00,VALID,916.889,VALID,0,VALID,100,VALID,0,VALID,19.8278,VALID,322,VALID,0,
2008-01-29, 01:15:00,VALID,916.859,VALID,0,VALID,100,VALID,0,VALID,19.8124,VALID,310,VALID,0,
2008-01-29, 01:16:00,VALID,916.833,VALID,0,VALID,100,VALID,-0.0169808,VALID,19.8021,VALID,310,VALID,0,
2008-01-29, 01:17:00,VALID,916.796,VALID,0,VALID,100,VALID,0.0169808,VALID,19.8016,VALID,310,VALID,0,
2008-01-29, 01:18:00,VALID,916.771,VALID,0,VALID,100,VALID,0.0169808,VALID,19.7951,VALID,318,VALID,0,
2008-01-29, 01:19:00,VALID,916.745,VALID,0,VALID,100,VALID,-0.0339617,VALID,19.7954,VALID,31,VALID,0.686955,
2008-01-29, 01:20:00,VALID,916.722,VALID,0,VALID,100,VALID,0.0169808,VALID,19.8243,VALID,29,VALID,0.335938,
2008-01-29, 01:21:00,VALID,916.688,VALID,0,VALID,100,VALID,0,VALID,19.8505,VALID,31,VALID,0,
2008-01-29, 01:22:00,VALID,916.672,VALID,0,VALID,100,VALID,0.0169808,VALID,19.8733,VALID,33,VALID,0.271076,
2008-01-29, 01:23:00,VALID,916.655,VALID,0,VALID,100,VALID,0,VALID,19.8795,VALID,33,VALID,0,
2008-01-29, 01:24:00,VALID,916.636,VALID,0,VALID,100,VALID,0.0169808,VALID,19.8535,VALID,33,VALID,0,
2008-01-29, 01:25:00,VALID,916.608,VALID,0,VALID,100,VALID,0.0339617,VALID,19.8243,VALID,33,VALID,0,
2008-01-29, 01:26:00,VALID,916.589,VALID,0,VALID,100,VALID,0.0169808,VALID,19.7949,VALID,33,VALID,0,
2008-01-29, 01:27:00,VALID,916.56,VALID,0,VALID,100,VALID,0.0169808,VALID,19.8081,VALID,33,VALID,0,
2008-01-29, 01:28:00,VALID,916.542,VALID,0,VALID,100,VALID,0,VALID,19.8211,VALID,33,VALID,0,
2008-01-29, 01:29:00,VALID,916.522,VALID,0,VALID,100,VALID,0,VALID,19.8276,VALID,33,VALID,0,
2008-01-29, 01:30:00,VALID,916.502,VALID,0,VALID,100,VALID,0,VALID,19.8308,VALID,32,VALID,0,
2008-01-29, 01:31:00,VALID,916.495,VALID,0,VALID,100,VALID,0,VALID,19.7882,VALID,32,VALID,0,
2008-01-29, 01:32:00,VALID,916.479,VALID,0,VALID,100,VALID,0.0169808,VALID,19.7592,VALID,32,VALID,0,
2008-01-29, 01:33:00,VALID,916.462,VALID,0,VALID,100,VALID,0.0169808,VALID,19.7689,VALID,32,VALID,0,
2008-01-29, 01:34:00,VALID,916.446,VALID,0,VALID,100,VALID,0.0339617,VALID,19.7627,VALID,32,VALID,0,
2008-01-29, 01:35:00,VALID,916.426,VALID,0,VALID,100,VALID,0.0169808,VALID,19.7455,VALID,32,VALID,0,
2008-01-29, 01:36:00,VALID,916.413,VALID,0,VALID,100,VALID,0.0339617,VALID,19.7492,VALID,31,VALID,0,
2008-01-29, 01:37:00,VALID,916.401,VALID,0,VALID,100,VALID,0.0169808,VALID,19.7492,VALID,27,VALID,0,
2008-01-29, 01:38:00,VALID,916.381,VALID,0,VALID,100,VALID,0.0509425,VALID,19.7332,VALID,23,VALID,0,
2008-01-29, 01:39:00,VALID,916.36,VALID,0,VALID,100,VALID,0.0679233,VALID,19.7103,VALID,23,VALID,0,
2008-01-29, 01:40:00,VALID,916.339,VALID,0,VALID,100,VALID,0.0339617,VALID,19.7103,VALID,23,VALID,0,
2008-01-29, 01:41:00,VALID,916.317,VALID,0,VALID,100,VALID,0.0169808,VALID,19.7041,VALID,23,VALID,0,
2008-01-29, 01:42:00,VALID,916.31,VALID,0,VALID,100,VALID,0.0339617,VALID,19.7135,VALID,23,VALID,0,
2008-01-29, 01:43:00,VALID,916.28,VALID,0,VALID,100,VALID,0,VALID,19.7041,VALID,23,VALID,0,
2008-01-29, 01:44:00,VALID,916.257,VALID,0,VALID,100,VALID,0.0169808,VALID,19.6881,VALID,23,VALID,0,
2008-01-29, 01:45:00,VALID,916.243,VALID,0,VALID,100,VALID,0.0169808,VALID,19.6686,VALID,20,VALID,0,
2008-01-29, 01:46:00,VALID,916.249,VALID,0,VALID,100,VALID,0,VALID,19.6684,VALID,20,VALID,0,
2008-01-29, 01:47:00,VALID,916.228,VALID,0,VALID,100,VALID,0,VALID,19.6781,VALID,19,VALID,0,
2008-01-29, 01:48:00,VALID,916.225,VALID,0,VALID,100,VALID,0.0169808,VALID,19.6744,VALID,18,VALID,0,
2008-01-29, 01:49:00,VALID,916.223,VALID,0,VALID,100,VALID,0,VALID,19.6778,VALID,11,VALID,0,
2008-01-29, 01:50:00,VALID,916.226,VALID,0,VALID,100,VALID,0.0339617,VALID,19.6621,VALID,14,VALID,0,
2008-01-29, 01:51:00,VALID,916.229,VALID,0,VALID,100,VALID,-0.0169808,VALID,19.6491,VALID,20,VALID,0.188988,
2008-01-29, 01:52:00,VALID,916.224,VALID,0,VALID,100,VALID,-0.0169808,VALID,19.6459,VALID,22,VALID,0.676314,
2008-01-29, 01:53:00,VALID,916.237,VALID,0,VALID,100,VALID,0.0339617,VALID,19.6489,VALID,15,VALID,0.685594,
2008-01-29, 01:54:00,VALID,916.241,VALID,0,VALID,100,VALID,0,VALID,19.6491,VALID,22,VALID,0.46855,
2008-01-29, 01:55:00,VALID,916.234,VALID,0,VALID,100,VALID,0,VALID,19.6424,VALID,34,VALID,0.0528706,
2008-01-29, 01:56:00,VALID,916.242,VALID,0,VALID,100,VALID,0,VALID,19.6491,VALID,30,VALID,0.341751,
2008-01-29, 01:57:00,VALID,916.242,VALID,0,VALID,100,VALID,0,VALID,19.6424,VALID,13,VALID,0.256641,
2008-01-29, 01:58:00,VALID,916.241,VALID,0,VALID,100,VALID,0,VALID,19.6359,VALID,23,VALID,0.49858,
2008-01-29, 01:59:00,VALID,916.232,VALID,0,VALID,100,VALID,0,VALID,19.6359,VALID,16,VALID,0.190225,
2008-01-29, 02:00:00,VALID,916.229,VALID,0,VALID,100,VALID,0,VALID,19.6429,VALID,11,VALID,0,
2008-01-29, 02:01:00,VALID,916.231,VALID,0,VALID,100,VALID,-0.0169808,VALID,19.6526,VALID,11,VALID,0,
2008-01-29, 02:02:00,VALID,916.232,VALID,0,VALID,100,VALID,0.0169808,VALID,19.6491,VALID,11,VALID,0.359553,
2008-01-29, 02:03:00,VALID,916.244,VALID,0,VALID,100,VALID,-0.0169808,VALID,19.6424,VALID,357,VALID,0.822222,
2008-01-29, 02:04:00,VALID,916.249,VALID,0,VALID,100,VALID,0,VALID,19.6167,VALID,352,VALID,0.636083,
2008-01-29, 02:05:00,VALID,916.245,VALID,0,VALID,100,VALID,0,VALID,19.6002,VALID,353,VALID,0.380766,
2008-01-29, 02:06:00,VALID,916.249,VALID,0,VALID,100,VALID,0,VALID,19.5875,VALID,14,VALID,0.683408,
2008-01-29, 02:07:00,VALID,916.258,VALID,0,VALID,100,VALID,0,VALID,19.6005,VALID,12,VALID,0.324479,
2008-01-29, 02:08:00,VALID,916.253,VALID,0,VALID,100,VALID,0.0169808,VALID,19.6167,VALID,16,VALID,0.680804,
2008-01-29, 02:09:00,VALID,916.274,VALID,0,VALID,100,VALID,0,VALID,19.6394,VALID,11,VALID,0.39974,
2008-01-29, 02:10:00,VALID,916.276,VALID,0,VALID,100,VALID,0,VALID,19.6556,VALID,11,VALID,0.00952744,
2008-01-29, 02:11:00,VALID,916.282,VALID,0,VALID,100,VALID,-0.0169808,VALID,19.6584,VALID,11,VALID,0,
2008-01-29, 02:12:00,VALID,916.279,VALID,0,VALID,100,VALID,0,VALID,19.6714,VALID,11,VALID,0,
2008-01-29, 02:13:00,VALID,916.268,VALID,0,VALID,100,VALID,-0.0169808,VALID,19.6778,VALID,11,VALID,0,
2008-01-29, 02:14:00,VALID,916.27,VALID,0,VALID,100,VALID,0,VALID,19.7008,VALID,11,VALID,0,
2008-01-29, 02:15:00,VALID,916.262,VALID,0,VALID,100,VALID,-0.0169808,VALID,19.7038,VALID,11,VALID,0,
2008-01-29, 02:16:00,VALID,916.252,VALID,0,VALID,100,VALID,0,VALID,19.7205,VALID,11,VALID,0,
2008-01-29, 02:17:00,VALID,916.252,VALID,0,VALID,100,VALID,-0.0169808,VALID,19.7238,VALID,11,VALID,0,
2008-01-29, 02:18:00,VALID,916.244,VALID,0,VALID,100,VALID,0.0339617,VALID,19.7011,VALID,11,VALID,0,
2008-01-29, 02:19:00,VALID,916.232,VALID,0,VALID,100,VALID,0,VALID,19.6686,VALID,11,VALID,0,
2008-01-29, 02:20:00,VALID,916.217,VALID,0,VALID,100,VALID,0.0169808,VALID,19.6491,VALID,11,VALID,0,
2008-01-29, 02:21:00,VALID,916.181,VALID,0,VALID,100,VALID,-0.0169808,VALID,19.6327,VALID,11,VALID,0,
2008-01-29, 02:22:00,VALID,916.172,VALID,0,VALID,100,VALID,0.0169808,VALID,19.6165,VALID,11,VALID,0,
2008-01-29, 02:23:00,VALID,916.133,VALID,0,VALID,100,VALID,0.0169808,VALID,19.6132,VALID,11,VALID,0,
2008-01-29, 02:24:00,VALID,916.114,VALID,0,VALID,100,VALID,0.0339617,VALID,19.5997,VALID,11,VALID,0,
2008-01-29, 02:25:00,VALID,916.104,VALID,0,VALID,100,VALID,0.0509425,VALID,19.6157,VALID,11,VALID,0,
2008-01-29, 02:26:00,VALID,916.082,VALID,0,VALID,100,VALID,0,VALID,19.6294,VALID,11,VALID,0,
2008-01-29, 02:27:00,VALID,916.056,VALID,0,VALID,100,VALID,0,VALID,19.6165,VALID,11,VALID,0,
2008-01-29, 02:28:00,VALID,916.062,VALID,0,VALID,100,VALID,0.0169808,VALID,19.6037,VALID,11,VALID,0,
2008-01-29, 02:29:00,VALID,916.064,VALID,0,VALID,100,VALID,-0.0339617,VALID,19.578,VALID,11,VALID,0,
2008-01-29, 02:30:00,VALID,916.067,VALID,0,VALID,100,VALID,-0.0169808,VALID,19.5653,VALID,11,VALID,0,
2008-01-29, 02:31:00,VALID,916.062,VALID,0,VALID,100,VALID,-0.0169808,VALID,19.5586,VALID,11,VALID,0,
2008-01-29, 02:32:00,VALID,916.064,VALID,0,VALID,100,VALID,-0.0339617,VALID,19.5493,VALID,11,VALID,0,
2008-01-29, 02:33:00,VALID,916.064,VALID,0,VALID,100,VALID,0,VALID,19.5358,VALID,11,VALID,0,
2008-01-29, 02:34:00,VALID,916.045,VALID,0,VALID,100,VALID,-0.0679233,VALID,19.5461,VALID,11,VALID,0,
2008-01-29, 02:35:00,VALID,916.035,VALID,0,VALID,100,VALID,-0.0169808,VALID,19.5521,VALID,11,VALID,0,
2008-01-29, 02:36:00,VALID,916.023,VALID,0,VALID,100,VALID,-0.0339617,VALID,19.5461,VALID,11,VALID,0,
2008-01-29, 02:37:00,VALID,916.012,VALID,0,VALID,100,VALID,-0.0169808,VALID,19.5361,VALID,11,VALID,0,
2008-01-29, 02:38:00,VALID,915.995,VALID,0,VALID,100,VALID,-0.0169808,VALID,19.5296,VALID,11,VALID,0,
2008-01-29, 02:39:00,VALID,915.984,VALID,0,VALID,100,VALID,-0.0339617,VALID,19.5269,VALID,11,VALID,0,
2008-01-29, 02:40:00,VALID,915.992,VALID,0,VALID,100,VALID,-0.0509425,VALID,19.5231,VALID,11,VALID,0,
2008-01-29, 02:41:00,VALID,915.996,VALID,0,VALID,100,VALID,0,VALID,19.5261,VALID,11,VALID,0,
2008-01-29, 02:42:00,VALID,915.994,VALID,0,VALID,100,VALID,0,VALID,19.5321,VALID,11,VALID,0,
2008-01-29, 02:43:00,VALID,916.002,VALID,0,VALID,100,VALID,-0.0169808,VALID,19.5521,VALID,11,VALID,0,
2008-01-29, 02:44:00,VALID,916.012,VALID,0,VALID,100,VALID,-0.0169808,VALID,19.5458,VALID,11,VALID,0,
2008-01-29, 02:45:00,VALID,916.005,VALID,0,VALID,100,VALID,-0.0169808,VALID,19.559,VALID,11,VALID,0.258743,
2008-01-29, 02:46:00,VALID,916,VALID,0,VALID,100,VALID,-0.0169808,VALID,19.5461,VALID,11,VALID,0.711458,
2008-01-29, 02:47:00,VALID,915.977,VALID,0,VALID,100,VALID,0,VALID,19.5199,VALID,11,VALID,0.850174,
2008-01-29, 02:48:00,VALID,915.961,VALID,0,VALID,100,VALID,-0.0339617,VALID,19.5036,VALID,11,VALID,0.991832,
2008-01-29, 02:49:00,VALID,915.939,VALID,0,VALID,100,VALID,-0.0679233,VALID,19.4842,VALID,11,VALID,1.08652,
2008-01-29, 02:50:00,VALID,915.933,VALID,0,VALID,100,VALID,-0.0169808,VALID,19.4742,VALID,13,VALID,1.20694,
2008-01-29, 02:51:00,VALID,915.934,VALID,0,VALID,100,VALID,-0.0169808,VALID,19.468,VALID,11,VALID,1.02326,
2008-01-29, 02:52:00,VALID,915.959,VALID,0,VALID,100,VALID,-0.0679233,VALID,19.465,VALID,12,VALID,0.953125,
2008-01-29, 02:53:00,VALID,915.954,VALID,0,VALID,100,VALID,0,VALID,19.4577,VALID,9,VALID,1.04726,
2008-01-29, 02:54:00,VALID,915.959,VALID,0,VALID,100,VALID,-0.0339617,VALID,19.4577,VALID,16,VALID,0.828516,
2008-01-29, 02:55:00,VALID,915.947,VALID,0,VALID,100,VALID,-0.0169808,VALID,19.4547,VALID,1,VALID,0.648615,
2008-01-29, 02:56:00,VALID,915.938,VALID,0,VALID,100,VALID,-0.0169808,VALID,19.4483,VALID,8,VALID,0.85404,
2008-01-29, 02:57:00,VALID,915.926,VALID,0,VALID,100,VALID,-0.0169808,VALID,19.438,VALID,5,VALID,0.582849,
2008-01-29, 02:58:00,VALID,915.904,VALID,0,VALID,100,VALID,0,VALID,19.445,VALID,6,VALID,0.104936,
2008-01-29, 02:59:00,VALID,915.882,VALID,0,VALID,100,VALID,-0.0339617,VALID,19.4445,VALID,8,VALID,0,
2008-01-29, 03:00:00,VALID,915.866,VALID,0,VALID,100,VALID,-0.0169808,VALID,19.4483,VALID,5,VALID,0,
2008-01-29, 03:01:00,VALID,915.883,VALID,0,VALID,100,VALID,0,VALID,19.4318,VALID,5,VALID,0,
2008-01-29, 03:02:00,VALID,915.89,VALID,0,VALID,100,VALID,-0.0169808,VALID,19.4448,VALID,3,VALID,0,
2008-01-29, 03:03:00,VALID,915.89,VALID,0,VALID,100,VALID,0.0169808,VALID,19.4508,VALID,3,VALID,0,
2008-01-29, 03:04:00,VALID,915.908,VALID,0,VALID,100,VALID,0,VALID,19.4642,VALID,3,VALID,0,
2008-01-29, 03:05:00,VALID,915.915,VALID,0,VALID,100,VALID,0,VALID,19.4675,VALID,3,VALID,0,
2008-01-29, 03:06:00,VALID,915.922,VALID,0,VALID,100,VALID,-0.0169808,VALID,19.4705,VALID,353,VALID,0,
2008-01-29, 03:07:00,VALID,915.933,VALID,0,VALID,100,VALID,0,VALID,19.474,VALID,304,VALID,0.0517113,
2008-01-29, 03:08:00,VALID,915.94,VALID,0,VALID,100,VALID,0,VALID,19.4804,VALID,281,VALID,0,
2008-01-29, 03:09:00,VALID,915.944,VALID,0,VALID,100,VALID,0,VALID,19.4772,VALID,281,VALID,0,
2008-01-29, 03:10:00,VALID,915.934,VALID,0,VALID,100,VALID,0.0169808,VALID,19.4839,VALID,281,VALID,0,
2008-01-29, 03:11:00,VALID,915.929,VALID,0,VALID,100,VALID,0,VALID,19.4804,VALID,281,VALID,0,
2008-01-29, 03:12:00,VALID,915.938,VALID,0,VALID,100,VALID,-0.0169808,VALID,19.4737,VALID,281,VALID,0,
2008-01-29, 03:13:00,VALID,915.935,VALID,0,VALID,100,VALID,0,VALID,19.4937,VALID,281,VALID,0,
2008-01-29, 03:14:00,VALID,915.938,VALID,0,VALID,100,VALID,-0.0509425,VALID,19.4869,VALID,281,VALID,0,
2008-01-29, 03:15:00,VALID,915.946,VALID,0,VALID,100,VALID,0,VALID,19.4869,VALID,281,VALID,0,
2008-01-29, 03:16:00,VALID,915.947,VALID,0,VALID,100,VALID,-0.0339617,VALID,19.4904,VALID,281,VALID,0,
2008-01-29, 03:17:00,VALID,915.947,VALID,0,VALID,100,VALID,-0.0339617,VALID,19.4967,VALID,281,VALID,0,
2008-01-29, 03:18:00,VALID,915.945,VALID,0,VALID,100,VALID,-0.0679233,VALID,19.4939,VALID,281,VALID,0,
2008-01-29, 03:19:00,VALID,915.952,VALID,0,VALID,100,VALID,-0.0339617,VALID,19.5069,VALID,282,VALID,0,
2008-01-29, 03:20:00,VALID,915.956,VALID,0,VALID,100,VALID,-0.0169808,VALID,19.5134,VALID,287,VALID,0,
2008-01-29, 03:21:00,VALID,915.973,VALID,0,VALID,100,VALID,-0.0509425,VALID,19.5164,VALID,325,VALID,0,
2008-01-29, 03:22:00,VALID,915.975,VALID,0,VALID,100,VALID,-0.0339617,VALID,19.5299,VALID,325,VALID,0,
2008-01-29, 03:23:00,VALID,915.997,VALID,0,VALID,100,VALID,-0.0339617,VALID,19.5296,VALID,326,VALID,0,
2008-01-29, 03:24:00,VALID,915.999,VALID,0,VALID,100,VALID,-0.0339617,VALID,19.5234,VALID,327,VALID,0,
2008-01-29, 03:25:00,VALID,916.001,VALID,0,VALID,100,VALID,-0.0509425,VALID,19.5426,VALID,327,VALID,0,
2008-01-29, 03:26:00,VALID,915.996,VALID,0,VALID,100,VALID,-0.0169808,VALID,19.5456,VALID,327,VALID,0,
2008-01-29, 03:27:00,VALID,915.993,VALID,0,VALID,100,VALID,0,VALID,19.5294,VALID,327,VALID,0,
2008-01-29, 03:28:00,VALID,916.001,VALID,0,VALID,100,VALID,-0.118866,VALID,19.5436,VALID,327,VALID,0,
2008-01-29, 03:29:00,VALID,915.983,VALID,0,VALID,100,VALID,-0.101885,VALID,19.5236,VALID,314,VALID,0,
2008-01-29, 03:30:00,VALID,915.988,VALID,0,VALID,100,VALID,-0.0679233,VALID,19.5176,VALID,351,VALID,0,
2008-01-29, 03:31:00,VALID,915.991,VALID,0,VALID,100,VALID,-0.101885,VALID,19.4944,VALID,352,VALID,0,
2008-01-29, 03:32:00,VALID,915.999,VALID,0,VALID,100,VALID,-0.0849042,VALID,19.4944,VALID,359,VALID,0,
2008-01-29, 03:33:00,VALID,916.006,VALID,0,VALID,100,VALID,-0.0679233,VALID,19.5016,VALID,349,VALID,0,
2008-01-29, 03:34:00,VALID,916,VALID,0,VALID,100,VALID,-0.0849042,VALID,19.4949,VALID,347,VALID,0,
2008-01-29, 03:35:00,VALID,916.022,VALID,0,VALID,100,VALID,-0.0849042,VALID,19.5076,VALID,359,VALID,0,
2008-01-29, 03:36:00,VALID,916.026,VALID,0,VALID,100,VALID,-0.101885,VALID,19.5144,VALID,4,VALID,0.277902,
2008-01-29, 03:37:00,VALID,916.034,VALID,0,VALID,100,VALID,-0.101885,VALID,19.5243,VALID,26,VALID,0.726563,
2008-01-29, 03:38:00,VALID,916.033,VALID,0,VALID,100,VALID,-0.101885,VALID,19.5176,VALID,19,VALID,1.16109,
2008-01-29, 03:39:00,VALID,916.026,VALID,0,VALID,100,VALID,-0.0509425,VALID,19.5009,VALID,9,VALID,0.914583,
2008-01-29, 03:40:00,VALID,916.033,VALID,0,VALID,100,VALID,-0.101885,VALID,19.5111,VALID,15,VALID,0.805575,
2008-01-29, 03:41:00,VALID,916.012,VALID,0,VALID,100,VALID,-0.0679233,VALID,19.5009,VALID,24,VALID,0.696875,
2008-01-29, 03:42:00,VALID,916.009,VALID,0,VALID,100,VALID,-0.0679233,VALID,19.5111,VALID,357,VALID,0.234193,
2008-01-29, 03:43:00,VALID,915.997,VALID,0,VALID,100,VALID,-0.0679233,VALID,19.4977,VALID,341,VALID,0,
2008-01-29, 03:44:00,VALID,916.003,VALID,0,VALID,100,VALID,-0.0849042,VALID,19.5111,VALID,355,VALID,0.412729,
2008-01-29, 03:45:00,VALID,916.002,VALID,0,VALID,100,VALID,-0.0679233,VALID,19.5239,VALID,357,VALID,0.076029,
2008-01-29, 03:46:00,VALID,916.005,VALID,0,VALID,100,VALID,-0.101885,VALID,19.5209,VALID,5,VALID,0,
2008-01-29, 03:47:00,VALID,916.009,VALID,0,VALID,100,VALID,-0.101885,VALID,19.5368,VALID,14,VALID,0,
2008-01-29, 03:48:00,VALID,916.021,VALID,0,VALID,100,VALID,-0.0849042,VALID,19.5368,VALID,8,VALID,0,
2008-01-29, 03:49:00,VALID,916.016,VALID,0,VALID,100,VALID,-0.0339617,VALID,19.5204,VALID,356,VALID,0,
2008-01-29, 03:50:00,VALID,916.015,VALID,0,VALID,100,VALID,-0.0509425,VALID,19.5241,VALID,10,VALID,0,
2008-01-29, 03:51:00,VALID,916.021,VALID,0,VALID,100,VALID,-0.0679233,VALID,19.5401,VALID,13,VALID,0,
2008-01-29, 03:52:00,VALID,916.019,VALID,0,VALID,100,VALID,-0.0849042,VALID,19.5436,VALID,7,VALID,0,
2008-01-29, 03:53:00,VALID,916.014,VALID,0,VALID,100,VALID,-0.101885,VALID,19.5406,VALID,5,VALID,0,